Regional Weather Roundup
Issued by NWS

Home | Current Version | Previous Version | Graphics & Text | Print | Product List | Glossary On
Versions: 1 2 3 4 5 6 7 8 9 10 11 12 13 14 15 16 17 18 19 20 21 22 23 24 25 26 27 28 29 30 31 32 33 34 35 36 37 38 39 40 41 42 43 44 45 46 47 48 49 50
000
ASUS43 KBIS 301810
RWRND

NORTH DAKOTA REGIONAL WEATHER ROUNDUP
NATIONAL WEATHER SERVICE BISMARCK ND
100 PM CDT SAT MAY 30 2015

NOTE: "FAIR" INDICATES FEW OR NO CLOUDS BELOW 12,000 FEET WITH NO
SIGNIFICANT WEATHER AND/OR OBSTRUCTIONS TO VISIBILITY.


NDZ001>003-009>011-017-301900-
NORTHWEST NORTH DAKOTA

CITY           SKY/WX    TMP DP  RH WIND       PRES   REMARKS
WILLISTON      SUNNY     57  35  43 SE17G23   30.26F
6HR MIN TEMP:  43; 6HR MAX TEMP:  58;

MINOT          MOSUNNY   51  28  41 E14G20    30.35F
MINOT AFB      MOSUNNY   54  32  42 SE15      30.34F
$$

NDZ018>021-031>035-040>046-301900-
SOUTHWEST NORTH DAKOTA

CITY           SKY/WX    TMP DP  RH WIND       PRES   REMARKS
BISMARCK       MOSUNNY   52  31  44 E6        30.36F
6HR MIN TEMP:  35; 6HR MAX TEMP:  52;

DICKINSON      MOSUNNY   56  37  49 SE17G29   30.25F
GARRISON         N/A     52  30  43 SE13G23   30.33F
6HR MIN TEMP:  39; 6HR MAX TEMP:  52;

HETTINGER ARPT MOSUNNY   55  38  52 SE21      30.28S
$$

NDZ004>008-012>016-024-026-027-054-301900-
NORTHEAST NORTH DAKOTA

CITY           SKY/WX    TMP DP  RH WIND       PRES   REMARKS
GRAND FORKS    MOSUNNY   49  30  48 NE10      30.40F
GRND FRKS AFB  SUNNY     49  29  45 VRB6      30.40F
DEVILS LAKE    SUNNY     46  25  42 E8G16     30.39F
$$

NDZ022-023-025-028>030-036>039-047>053-301900-
SOUTHEAST NORTH DAKOTA

CITY           SKY/WX    TMP DP  RH WIND       PRES   REMARKS
FARGO          SUNNY     50  35  56 N9        30.36F
6HR MIN TEMP:  36; 6HR MAX TEMP:  51;

JAMESTOWN      SUNNY     48  31  51 NE6G18    30.37F
$$




USA.gov is the U.S. government's official web portal to all federal, state and local government web resources and services.